STARLINK-35832

Last updated on Tue Dec 16 2025 00:02:05 GMT+0000 (Coordinated Universal Time)

1 66495U 25263L 25349.33335648 .00053721 00000+0 12854-2 0 9995 2 66495 43.0004 110.1037 0001878 283.2687 52.2933 15.40673199 6056
UTC large
Height (km)
Speed (km/s)
/
Latitude / Longitude
Inclination (degrees)
Orbital Period (minutes)
Azimuth
Elevation
Range (km)
Doppler Factor

Next 0 passes for location: London (51.5072 / 0.1276)

Sorry there are no passes over London.